Temp
11 10 10 10 9 9 9 9 9 8 8 8 8 7 7 7 7 7 6 6 5 5 5 4 4 3 3 2 2 2 1 1 -0 1 2 2 2 1 2 2 2 2 2
10 10 10 9 9 9 9 8 8 8 8 7 7 7 7 7 7 7 6 6 5 5 4 3 3 2 2 2 1 1 1 1 0 0 1 1 1 1 1 2 2 2 2
10 10 9 9 9 9 8 8 8 7 7 7 7 7 7 7 7 6 5 5 5 4 4 3 3 2 2 1 1 0 0 0 1 0 1 1 1 1 1 1 2 2 1
10 9 9 9 9 8 8 8 7 7 7 7 7 7 7 7 6 5 5 4 4 4 3 3 3 2 2 1 0 0 0 0 0 0 0 1 1 1 1 1 1 1 1
9 9 9 9 8 8 8 7 7 7 7 7 7 7 7 6 5 5 5 4 3 3 3 3 3 2 1 1 0 0 0 0 0 -0 -0 -0 0 0 0 1 0 0 0
9 9 9 8 8 7 7 7 7 7 7 7 6 6 5 5 5 5 4 3 3 2 2 3 2 2 2 1 0 0 0 0 -0 -0 -1 0 1 1 0 0 -0 -1 -0
9 8 8 8 7 7 7 7 7 7 7 7 6 6 5 5 6 5 4 3 2 2 2 2 2 2 1 1 1 0 0 0 0 1 0 -0 -0 -0 -1 -1 -1 -1 -1
8 8 8 7 7 7 6 6 7 6 6 5 5 5 4 4 5 4 3 2 2 2 2 2 1 1 1 1 -0 -0 0 0 0 0 -0 -0 -1 -1 -0 -1 -1 -1 -1
7 8 7 7 6 6 6 6 6 5 5 5 4 4 4 4 4 3 2 2 1 2 2 2 1 1 1 -0 -0 -0 -0 -0 0 0 -0 -0 -0 0 0 -0 -0 -1 -1
7 7 6 6 6 6 6 5 5 4 4 4 3 3 3 3 3 2 2 1 1 1 1 1 1 0 -0 -0 0 0 -0 -0 -1 -1 -0 -0 -1 -1 -1 -1 -1 -2 -2
6 6 6 6 6 5 4 4 4 4 3 3 2 2 2 2 2 2 2 0 0 0 0 1 1 0 -1 -1 -0 -0 -0 -0 -1 -0 -1 -1 -1 -2 -2 -2 -2 -2 -2
6 6 6 5 5 4 4 4 3 3 2 2 1 1 2 2 1 1 0 -0 0 0 0 0 -0 -0 -1 -1 -0 0 -0 0 -1 -1 -2 -3 -3 -3 -2 -2 -2 -2 -2
5 5 5 5 4 4 3 2 2 1 1 0 -1 -1 -1 0 0 1 -0 -1 -1 -1 -1 -1 -1 -1 -0 -0 -0 -1 -1 -1 -2 -3 -3 -3 -3 -3 -2 -3 -3 -3 -3
4 4 4 3 3 2 2 1 0 -0 -1 -2 -2 -2 -2 -2 -1 -1 -1 -1 -1 -0 -0 -0 -0 -1 -1 -0 -1 -1 -2 -2 -3 -4 -4 -3 -4 -3 -3 -3 -3 -3 -3
3 3 2 2 1 1 0 -0 -1 -1 -2 -2 -2 -2 -2 -2 -2 -1 -1 -1 -1 -1 -1 -1 -2 -2 -2 -2 -2 -3 -3 -3 -4 -4 -4 -4 -4 -4 -3 -3 -3 -3 -2
2 1 1 0 0 -0 -1 -1 -1 -2 -2 -2 -2 -2 -2 -1 -1 -1 -1 -1 -1 -1 -1 -2 -2 -2 -3 -3 -3 -4 -4 -4 -4 -4 -4 -4 -4 -3 -3 -3 -3 -3 -2
1 0 -0 -1 -1 -2 -2 -3 -4 -2 -2 -3 -3 -2 -2 -2 -2 -2 -1 -1 -1 -1 -2 -3 -3 -3 -4 -4 -4 -4 -5 -5 -5 -5 -5 -4 -4 -4 -3 -3 -3 -2 -3
0 -0 -1 -1 -2 -2 -3 -3 -3 -4 -4 -4 -3 -3 -3 -2 -2 -2 -2 -2 -3 -3 -3 -3 -4 -4 -4 -5 -5 -5 -5 -5 -5 -5 -5 -5 -4 -4 -3 -3 -3 -3 -3
-1 -1 -2 -2 -2 -3 -2 -3 -4 -4 -4 -4 -4 -3 -3 -3 -3 -3 -3 -3 -4 -4 -4 -4 -5 -5 -5 -5 -5 -5 -6 -6 -5 -5 -5 -5 -4 -4 -3 -3 -3 -3 -3
-1 -2 -2 -3 -2 -2 -3 -4 -4 -4 -3 -3 -3 -4 -4 -4 -4 -4 -4 -4 -5 -5 -5 -5 -6 -5 -6 -6 -6 -6 -6 -6 -6 -6 -5 -5 -4 -4 -3 -3 -3 -3 -3
-2 -2 -3 -2 -2 -3 -3 -4 -4 -4 -4 -4 -4 -4 -3 -3 -4 -5 -5 -5 -5 -5 -6 -6 -6 -6 -6 -6 -6 -6 -6 -6 -6 -6 -5 -5 -4 -4 -3 -3 -3 -3 -3
-3 -3 -2 -2 -3 -3 -4 -4 -4 -5 -4 -5 -5 -5 -4 -5 -5 -6 -6 -6 -6 -6 -6 -6 -6 -6 -7 -7 -6 -6 -6 -6 -6 -5 -5 -4 -4 -3 -3 -3 -3 -3 -4
-3 -2 -3 -3 -4 -4 -4 -5 -5 -5 -6 -6 -6 -5 -6 -6 -6 -6 -6 -7 -7 -7 -7 -7 -7 -7 -7 -7 -7 -6 -6 -6 -5 -5 -5 -4 -4 -3 -3 -3 -4 -4 -4
-3 -3 -4 -4 -5 -4 -5 -6 -6 -6 -6 -6 -6 -7 -7 -7 -7 -7 -7 -7 -7 -7 -7 -7 -7 -7 -7 -6 -6 -6 -5 -5 -5 -4 -4 -4 -4 -4 -4 -4 -4 -4 -5
-4 -4 -4 -5 -5 -5 -5 -6 -6 -6 -6 -7 -7 -8 -8 -7 -7 -7 -7 -7 -7 -7 -7 -7 -7 -7 -6 -6 -5 -5 -4 -4 -4 -4 -4 -4 -4 -4 -4 -5 -5 -5 -5
-4 -5 -5 -5 -5 -5 -6 -6 -6 -7 -7 -8 -8 -8 -8 -8 -7 -7 -7 -7 -7 -7 -7 -7 -6 -6 -6 -5 -5 -4 -4 -5 -4 -4 -4 -4 -4 -5 -5 -5 -5 -6 -6
Height
810 811 812 813 814 814 815 815 816 816 817 817 816 816 815 814 813 812 810 808 806 805 803 801 799 799 797 796 794 793 791 791 787 778 775 773 771 770 768 766 764 760 757
808 809 810 811 812 813 814 814 815 815 815 815 815 815 814 812 811 809 807 805 802 800 799 797 795 793 792 790 789 787 785 784 782 778 773 768 767 764 761 759 758 756 754
805 806 807 809 811 812 813 813 813 814 814 814 814 813 812 810 808 806 803 801 799 797 796 793 791 790 786 785 784 782 781 778 777 774 769 767 763 761 756 754 752 749 748
803 804 805 807 809 811 812 813 813 813 812 812 812 810 809 807 805 802 798 796 794 792 790 788 786 784 782 781 779 777 776 774 772 770 767 763 760 757 754 750 745 744 741
800 802 803 805 806 808 810 811 811 811 809 809 808 807 806 803 799 795 793 791 788 786 784 784 782 779 777 777 775 773 771 769 767 765 762 759 757 754 752 748 744 740 736
797 799 801 802 803 805 807 808 809 808 806 806 805 802 800 797 794 791 789 786 784 782 780 778 777 775 773 771 770 768 767 764 762 761 758 754 750 749 747 744 741 737 731
793 796 799 801 802 803 804 805 806 806 804 802 800 797 795 792 789 786 783 780 777 775 774 772 770 769 767 765 763 762 760 759 758 756 752 749 745 743 741 737 734 730 725
792 795 798 800 802 803 804 804 804 803 801 798 795 794 790 788 785 781 779 775 771 768 767 765 763 762 760 759 756 753 752 750 748 747 744 740 738 736 732 728 724 719 715
792 795 798 800 801 802 802 803 802 799 797 793 791 788 786 782 779 775 773 769 764 761 760 759 757 755 754 753 751 748 745 742 741 739 736 733 731 728 726 722 715 714 707
794 796 798 799 799 800 800 800 798 795 792 788 784 783 779 775 773 769 767 762 758 754 753 751 750 749 747 747 746 743 740 736 734 729 726 723 722 719 718 715 711 706 704
797 798 799 800 800 799 799 798 794 791 787 783 779 776 773 770 765 762 758 756 752 748 746 743 742 742 741 740 739 737 734 731 727 724 719 716 713 710 708 705 703 701 697
798 798 799 799 798 797 795 793 790 786 782 778 773 768 765 762 759 755 752 750 747 744 740 738 736 735 734 733 731 729 727 724 720 717 713 710 707 702 700 697 694 692 689
800 799 798 796 795 794 792 788 784 782 777 773 768 763 759 756 752 750 746 743 741 738 735 732 730 729 727 725 723 722 720 717 714 710 707 703 700 696 692 689 686 683 679
797 796 794 792 791 789 788 784 780 776 772 769 765 760 755 750 746 743 740 736 734 732 729 725 723 721 719 718 715 714 712 710 707 703 699 696 693 689 685 682 678 675 672
795 793 791 789 787 785 783 781 776 772 770 765 761 757 752 746 742 740 736 732 728 725 722 719 716 714 712 711 709 706 704 702 699 697 694 690 686 682 678 676 672 668 665
792 791 789 786 785 782 777 773 772 768 764 761 757 753 747 744 739 734 730 726 722 720 716 713 710 708 707 705 702 700 698 696 693 691 688 684 680 676 672 668 665 662 659
789 788 786 784 781 777 774 771 764 758 757 754 751 746 743 739 734 729 724 720 716 714 710 708 706 704 702 699 697 695 692 690 687 685 681 678 674 670 667 662 659 656 654
788 786 784 781 778 774 771 768 765 759 753 747 745 743 738 734 729 724 720 715 712 710 708 705 702 700 697 695 692 689 686 684 681 678 675 672 669 665 661 657 654 652 651
785 782 780 778 776 772 769 765 761 757 753 748 741 737 734 729 724 720 717 714 709 706 703 701 698 695 693 690 686 684 681 678 676 673 670 667 663 660 656 653 651 649 649
782 780 777 775 772 768 765 762 758 755 750 745 740 735 729 723 718 715 713 709 706 702 699 696 693 690 687 684 681 678 675 673 670 668 664 661 658 655 652 649 648 647 647
778 776 773 771 768 764 762 758 755 751 747 742 737 733 728 722 717 713 709 705 701 698 695 691 688 684 681 679 676 673 671 668 665 662 660 656 653 650 648 647 646 646 647
775 773 769 766 764 761 758 755 752 748 743 738 733 729 724 720 715 710 705 701 697 694 690 686 682 680 677 674 671 668 666 663 660 658 655 653 650 647 646 646 646 647 647
772 769 765 763 761 758 755 752 748 744 740 735 731 725 721 717 712 707 702 698 693 689 686 682 678 675 672 669 666 664 661 658 655 654 652 650 648 647 646 646 647 648 649
768 766 763 760 758 755 753 749 745 741 737 733 728 723 718 714 709 704 699 694 690 686 682 678 674 671 667 664 662 659 656 654 652 650 649 648 648 647 647 647 648 649 650
765 762 759 757 754 752 749 746 742 738 734 730 725 720 716 711 705 700 695 690 686 682 678 674 670 667 664 661 659 656 654 652 651 649 648 648 648 649 649 650 650 651 651
761 758 756 754 751 748 745 742 739 735 731 727 722 717 713 708 702 697 692 688 684 679 675 671 668 665 662 660 658 657 655 654 652 651 650 650 650 651 651 651 651 652 652
Wind_Speed
8 8 8 7 7 8 8 8 6 5 4 3 2 2 4 5 8 10 10 10 11 11 10 12 14 15 16 16 14 14 13 13 8 25 24 25 24 25 22 20 23 22 23
9 9 9 10 10 10 10 8 7 6 5 3 2 4 6 8 10 11 13 13 13 13 14 15 16 15 16 16 15 15 15 15 16 14 22 25 24 25 27 26 23 22 23
11 11 12 12 12 11 10 9 7 6 5 3 5 7 8 11 14 15 14 13 14 16 16 16 17 16 17 17 17 18 18 16 16 17 17 20 25 26 28 27 25 24 23
13 13 13 13 12 11 10 9 8 7 6 6 7 10 12 16 17 16 15 15 17 17 17 17 17 16 17 17 18 19 18 16 20 21 20 20 19 24 26 25 24 23 26
14 14 14 12 12 11 10 10 9 8 7 7 10 15 17 19 18 17 18 19 18 19 19 19 19 18 17 16 16 19 19 21 23 20 17 17 18 17 17 21 24 28 27
15 15 13 13 12 11 10 10 10 10 10 11 16 20 23 21 21 20 19 19 19 20 22 22 22 21 20 18 16 18 17 19 20 19 18 19 22 22 21 22 23 19 12
16 14 12 12 12 12 11 11 11 11 13 19 23 24 23 23 24 23 21 20 20 21 22 22 23 23 22 22 23 22 19 20 20 23 24 25 26 27 26 26 25 25 25
14 11 11 11 11 10 10 10 11 15 19 23 24 25 25 26 26 24 23 21 21 22 23 22 22 23 23 23 23 23 24 26 24 26 28 31 31 30 28 29 30 28 24
10 8 8 9 9 8 9 11 17 22 24 25 26 27 28 29 27 26 24 23 23 24 23 22 22 22 22 20 19 24 27 27 30 32 28 29 30 31 32 33 24 19 16
4 4 6 6 5 7 12 18 22 22 25 25 28 29 29 31 28 27 25 24 24 24 23 24 23 21 19 18 19 22 23 26 31 33 31 29 28 28 28 29 26 18 18
1 2 2 3 8 14 18 20 24 25 27 28 30 31 30 28 28 25 22 21 23 24 24 26 27 23 18 18 19 22 23 28 28 28 28 28 31 30 27 26 29 27 22
1 1 5 11 15 18 20 22 24 26 28 30 31 33 31 28 25 24 21 19 20 22 26 27 26 23 20 20 23 24 26 30 24 26 25 22 27 24 27 30 31 30 33
6 11 14 16 19 20 22 25 27 26 27 29 26 25 29 29 28 26 24 21 19 19 22 24 23 23 24 24 25 23 25 26 28 23 20 22 26 26 30 27 23 26 28
11 14 17 19 21 23 24 24 25 25 27 22 21 22 25 29 31 31 27 23 23 23 23 25 25 23 22 26 24 26 27 23 25 22 21 26 27 26 24 24 24 25 23
12 15 17 19 20 22 22 23 22 24 20 24 24 24 24 25 28 25 26 27 25 23 24 21 19 17 20 19 23 23 23 23 23 23 24 24 25 24 23 23 23 22 18
13 15 16 18 19 21 24 28 24 22 21 22 23 24 27 26 28 28 27 26 25 23 24 19 16 14 16 20 20 19 20 22 20 23 22 24 23 22 21 24 22 21 15
12 14 16 18 20 21 22 23 23 29 26 23 20 20 20 24 26 26 27 27 26 24 16 15 17 18 19 20 19 20 21 21 23 22 23 23 23 22 23 20 18 15 13
14 16 18 18 18 19 21 24 24 20 22 27 27 22 23 23 24 24 24 25 20 18 19 19 20 20 19 15 22 20 20 21 21 22 22 24 22 21 19 17 15 13 11
16 17 16 16 17 18 22 24 22 20 18 21 25 24 22 24 24 23 18 19 20 20 19 20 20 16 21 24 20 21 21 22 22 21 21 22 23 20 18 17 15 10 6
15 17 16 16 19 21 22 21 18 19 22 21 21 23 28 28 20 14 20 19 19 20 21 17 21 22 20 21 23 22 22 21 22 21 21 22 21 20 17 15 10 6 4
17 17 14 18 20 21 21 20 20 20 21 21 22 24 26 26 21 25 22 21 20 19 22 22 21 21 22 23 23 21 21 22 22 22 21 21 21 18 13 6 4 2 2
16 15 18 20 20 21 21 18 20 20 20 21 23 23 25 23 22 22 22 21 23 22 24 23 23 23 23 22 22 22 23 22 22 21 20 20 17 12 5 3 1 2 3
15 19 19 19 20 20 19 18 21 19 20 21 22 23 24 22 22 23 23 24 25 25 24 23 23 24 23 22 21 20 21 22 21 18 18 15 11 4 2 2 4 5 4
17 17 17 20 17 17 22 18 18 18 20 21 23 22 23 24 24 25 26 26 26 25 24 23 23 22 21 20 19 18 18 16 14 13 11 8 3 2 2 4 5 5 5
16 15 16 16 18 18 20 19 17 19 19 22 21 22 24 25 26 26 27 27 25 24 24 23 20 19 18 17 15 12 10 8 7 6 3 2 2 4 5 6 5 3 2
19 17 16 17 17 18 20 19 19 19 23 24 23 25 25 25 26 26 26 25 24 23 20 18 17 14 12 10 9 9 9 10 8 6 5 5 5 6 4 3 3 3 4
Wind_Direction
236 237 230 225 223 215 209 202 204 208 209 202 212 321 338 340 337 331 326 321 316 315 313 309 316 319 319 319 315 308 300 291 261 290 300 311 315 319 321 318 318 318 321
235 235 224 224 217 210 206 206 211 211 207 225 284 316 323 327 326 320 314 308 304 305 308 304 307 315 314 318 317 310 303 299 281 278 299 307 308 314 315 314 315 316 312
232 227 220 218 215 214 213 215 216 214 227 264 296 308 314 316 313 306 297 301 302 303 301 300 305 310 312 315 313 308 308 301 293 279 285 299 304 309 312 311 310 309 310
228 224 220 218 220 220 222 226 224 230 248 275 293 302 305 304 299 298 304 298 296 293 294 291 294 300 305 309 309 305 304 292 300 291 285 284 292 298 296 295 298 303 302
225 223 225 223 221 220 224 229 235 246 263 283 298 304 303 296 296 302 299 291 290 289 291 291 295 299 303 301 295 297 296 296 296 288 287 293 297 295 287 296 295 299 297
220 223 225 223 218 221 230 236 246 255 264 286 298 299 297 295 303 304 295 290 289 289 291 294 296 298 299 304 297 293 284 292 292 290 289 290 293 294 292 287 282 284 293
213 214 219 219 221 226 236 245 256 271 286 294 298 298 297 300 304 303 296 285 284 285 287 290 294 295 298 298 301 297 290 288 284 293 288 285 286 290 292 287 279 270 268
199 206 216 220 229 240 249 262 279 295 302 302 301 304 304 304 307 303 296 286 282 281 282 285 286 289 293 298 297 294 289 289 289 297 289 288 288 285 280 277 278 272 274
184 204 221 226 242 258 274 292 303 306 306 304 305 305 305 305 304 300 295 286 282 280 280 284 287 289 293 294 288 285 288 284 296 297 289 287 291 295 293 290 279 275 285
180 223 234 239 254 287 308 306 307 309 307 307 306 306 306 303 303 301 294 287 282 280 283 285 287 287 287 287 289 292 290 291 298 299 297 292 295 296 291 285 280 280 285
248 237 248 290 308 315 314 314 313 312 310 308 307 308 306 303 304 303 297 285 280 280 282 285 291 297 286 287 287 285 285 295 295 293 294 295 297 294 287 278 288 274 265
29 312 311 318 323 321 319 319 320 318 315 312 312 311 311 311 310 308 303 292 286 281 283 287 290 291 288 287 290 290 293 298 296 300 293 292 295 284 290 293 292 282 277
325 320 322 324 324 325 325 323 323 323 317 313 308 303 307 314 312 311 310 302 294 287 287 289 290 286 288 288 291 292 297 296 300 291 284 290 290 278 295 291 282 282 283
329 325 324 325 325 325 325 328 328 326 321 311 304 300 302 306 309 313 314 311 307 301 298 295 292 287 282 285 288 293 293 290 294 287 284 294 291 289 287 288 284 284 284
328 326 325 327 327 327 329 329 326 323 315 308 303 300 297 297 298 302 300 300 299 298 300 295 289 284 282 284 294 294 296 297 292 288 290 290 290 290 281 286 284 278 272
329 331 332 330 327 327 330 329 331 325 316 310 306 303 301 296 299 302 302 302 302 300 298 290 288 291 283 286 282 291 293 291 290 289 286 285 285 285 285 291 283 270 267
335 334 333 332 332 332 333 330 319 327 326 322 318 316 312 308 310 308 306 305 305 304 296 293 293 290 289 289 282 292 290 287 294 288 286 284 290 283 290 287 282 280 275
336 335 332 331 332 335 333 326 321 312 314 317 324 321 315 316 314 312 312 316 318 318 303 294 294 290 292 293 301 290 289 292 292 289 289 288 285 287 288 285 283 282 279
332 333 334 331 331 329 325 327 322 314 312 311 315 318 316 317 313 310 316 319 310 303 298 293 291 289 302 297 291 294 290 289 291 291 291 290 292 289 288 287 291 288 253
331 328 327 324 323 324 323 323 319 316 314 316 318 316 317 315 315 326 323 311 304 301 297 294 304 299 294 293 295 293 290 290 291 290 290 290 291 292 287 291 299 280 278
324 320 323 319 322 321 316 313 311 313 315 314 313 315 321 325 323 317 314 309 304 305 301 300 299 299 299 299 297 294 291 291 291 293 293 292 297 292 300 294 312 277 255
319 319 322 321 320 319 315 315 320 316 314 315 315 317 323 320 315 311 312 312 310 309 309 307 302 304 304 303 301 298 295 293 296 296 299 303 307 309 290 268 255 159 137
323 322 323 322 322 317 315 323 319 315 315 315 315 319 322 319 315 313 311 312 313 316 318 314 309 310 313 313 311 307 301 300 304 306 304 307 315 329 321 255 167 139 109
322 321 318 321 318 318 324 323 317 318 320 319 319 318 316 315 312 312 314 318 320 321 322 320 319 318 317 316 316 315 313 309 309 307 306 304 322 356 55 123 122 117 101
315 317 320 318 317 314 314 318 316 315 318 318 317 318 317 315 314 316 321 324 326 326 325 327 326 324 323 324 327 333 343 345 336 333 3 52 73 94 98 104 87 89 105
313 314 313 311 305 306 311 309 315 318 323 325 323 323 323 319 319 321 326 329 329 330 332 336 339 340 343 359 19 23 22 19 22 34 55 69 98 106 88 101 104 97 100